Regional Weather Roundup
Issued by NWS Sioux Falls, SD

Home | Current Version | Previous Version | Text Only | Print | Product List | Glossary Off
Versions: 1 2 3 4 5 6 7 8 9 10 11 12 13 14 15 16 17 18 19 20 21 22 23 24 25 26 27 28 29 30 31 32 33 34 35 36 37 38 39 40 41 42 43 44 45 46 47 48 49 50

000
ASUS43 KFSD 232310
RWRFSD

WEATHER ROUNDUP FOR SE SOUTH DAKOTA/SW MINNESOTA/NW IOWA
NATIONAL WEATHER SERVICE SIOUX FALLS SD
600 PM CDT SUN SEP 23 2018

NOTE: "FAIR" INDICATES FEW OR NO CLOUDS BELOW 12,000 FEET WITH NO
SIGNIFICANT WEATHER AND OR OBSTRUCTIONS TO VISIBILITY.


SDZ038>040-050-052>070-240000-
SOUTHEAST SOUTH DAKOTA

CITY           SKY/WX    TMP DP  RH WIND       PRES   REMARKS
BROOKINGS      SUNNY     75  53  46 S21G28    29.79S
CHAMBERLAIN    MOSUNNY   82  60  46 S13       29.71S
HURON          PTSUNNY   79  56  45 S12G23    29.72F
MADISON        FAIR      75  52  43 S18G28    29.80S
MITCHELL       SUNNY     79  58  48 S15G24    29.75R
SIOUX FALLS    CLOUDY    75  54  47 S15       29.82S
WINNER           N/A    N/A N/A N/A MISG      29.72S
YANKTON        SUNNY     79  52  38 S15       29.81S
$$

MNZ071-072-080-081-089-090-097-098-240000-
SOUTHWEST MINNESOTA

CITY           SKY/WX    TMP DP  RH WIND       PRES   REMARKS
FAIRMONT       SUNNY     74  52  46 S20       29.91F
JACKSON        SUNNY     73  46  38 S13       29.90F
LUVERNE        SUNNY     73  45  35 S12       29.85S
MARSHALL       SUNNY     77  51  40 S23       29.81F
MONTEVIDEO     SUNNY     75  48  38 S13G18    29.80S
PIPESTONE      SUNNY     75  52  43 S12G23    29.84S
REDWOOD FALLS  SUNNY     76  50  40 S20G30    29.85S
TRACY          SUNNY     77  50  38 S9G21     29.84S
WINDOM         SUNNY     73  48  40 SE12      29.87F
WORTHINGTON    MOSUNNY   74  50  42 S13G20    29.88S
$$

IAZ001>003-012>014-020>022-031-032-NEZ013-014-SDZ071-240000-
NORTHWEST IOWA

CITY           SKY/WX    TMP DP  RH WIND       PRES   REMARKS
CHEROKEE       SUNNY     76  52  42 S12G17    29.89F
DENISON        SUNNY     77  54  44 S10G21    29.94S
ESTHERVILLE    SUNNY     73  51  46 S14G26    29.90F
ORANGE CITY    SUNNY     77  46  33 S13G24    29.87F
SHELDON        SUNNY     75  48  38 S13G23    29.85F
SIOUX CITY     SUNNY     77  54  44 S14G23    29.87F
SPENCER        SUNNY     76  51  41 S13G23    29.90S
STORM LAKE     SUNNY     77  52  41 S14G25    29.92S
$$

ABBREVIATIONS USED IN REMARKS
   TC - TEMPERATURE IN CELSIUS
  WCI - WIND CHILL INDEX
   HX - HEAT INDEX
  VSB - VISIBILITY





USA.gov is the U.S. government's official web portal to all federal, state and local government web resources and services.